• In Netherlands
  • List of Countries
  • For 7 days
  • Water Temperature
  • Satellite Maps
  • Weather Map
  • Weather Widgets
  • user-avatar
    Login

    Hourly Weather Kitzbuhel

    Today, 24 February, Friday

    Time Temperature Precipitation Wind Pressure Humidity
    00:00 +1°C° 0.1 mm 3 mps 667 mmHg 90%
    01:00 +1°C° 0.1 mm 3 mps 667 mmHg 91%
    02:00 +1°C° 0.4 mm 3 mps 667 mmHg 91%
    03:00 +1°C° 0.4 mm 3 mps 667 mmHg 92%
    04:00 +2°C° 0.4 mm 2 mps 667 mmHg 93%
    05:00 +2°C° 0.9 mm 2 mps 668 mmHg 93%
    06:00 +2°C° 0.9 mm 2 mps 668 mmHg 94%
    07:00 +2°C° 0.9 mm 2 mps 668 mmHg 95%
    08:00 +1°C° 0.8 mm 3 mps 669 mmHg 95%
    09:00 +1°C° 0.8 mm 3 mps 669 mmHg 94%
    10:00 +1°C° 0.8 mm 3 mps 670 mmHg 94%
    11:00 +1°C° 0.7 mm 3 mps 670 mmHg 93%
    12:00 +1°C° 0.7 mm 3 mps 670 mmHg 93%
    13:00 0°C° 0.7 mm 3 mps 670 mmHg 92%
    14:00 0°C° 0.6 mm 3 mps 670 mmHg 93%
    15:00 0°C° 0.6 mm 3 mps 670 mmHg 93%
    16:00 0°C° 0.6 mm 3 mps 670 mmHg 93%
    17:00 -1°C° 0.5 mm 2 mps 671 mmHg 94%
    18:00 -1°C° 0.5 mm 2 mps 672 mmHg 95%
    19:00 -2°C° 0.5 mm 2 mps 672 mmHg 96%
    20:00 -2°C° 0.3 mm 2 mps 673 mmHg 97%
    21:00 -3°C° 0.3 mm 2 mps 673 mmHg 97%
    22:00 -3°C° 0.3 mm 2 mps 674 mmHg 97%
    23:00 -3°C° 0.1 mm 2 mps 674 mmHg 97%

    Tomorrow, 25 February, Saturday

    Time Temperature Precipitation Wind Pressure Humidity
    00:00 -4°C° 0.1 mm 2 mps 675 mmHg 97%
    01:00 -5°C° 0.1 mm 2 mps 675 mmHg 97%
    02:00 -5°C° 0 mm 2 mps 675 mmHg 97%
    03:00 -6°C° 0 mm 2 mps 675 mmHg 97%
    04:00 -6°C° 0 mm 2 mps 675 mmHg 96%
    05:00 -7°C° 0 mm 2 mps 676 mmHg 95%
    06:00 -7°C° 0 mm 2 mps 676 mmHg 94%
    07:00 -7°C° 0 mm 2 mps 677 mmHg 93%
    08:00 -6°C° 0 mm 2 mps 677 mmHg 90%
    09:00 -2°C° 0 mm 1 mps 678 mmHg 86%
    10:00 0°C° 0 mm 1 mps 678 mmHg 83%
    11:00 +1°C° 0 mm 1 mps 678 mmHg 81%
    12:00 +2°C° 0 mm 1 mps 678 mmHg 78%
    13:00 +3°C° 0 mm 1 mps 678 mmHg 76%
    14:00 +3°C° 0 mm 1 mps 678 mmHg 78%
    15:00 +3°C° 0 mm 1 mps 678 mmHg 81%
    16:00 +3°C° 0 mm 1 mps 678 mmHg 83%
    17:00 0°C° 0 mm 1 mps 677 mmHg 85%
    18:00 -4°C° 0 mm 1 mps 676 mmHg 87%
    19:00 -9°C° 0 mm 1 mps 675 mmHg 89%
    20:00 -7°C° 0 mm 1 mps 676 mmHg 85%
    21:00 -6°C° 0 mm 1 mps 676 mmHg 81%
    22:00 -6°C° 0 mm 2 mps 677 mmHg 78%
    23:00 -6°C° 0 mm 2 mps 677 mmHg 77%

    Day after tomorrow, 26 February, Sunday

    Time Temperature Precipitation Wind Pressure Humidity
    00:00 -5°C° 0 mm 2 mps 677 mmHg 76%
    01:00 -4°C° 0 mm 2 mps 677 mmHg 76%
    02:00 -4°C° 0 mm 2 mps 676 mmHg 76%
    03:00 -4°C° 0 mm 2 mps 676 mmHg 76%
    04:00 -4°C° 0 mm 2 mps 676 mmHg 76%
    05:00 -4°C° 0 mm 2 mps 676 mmHg 76%
    06:00 -4°C° 0 mm 2 mps 676 mmHg 75%
    07:00 -3°C° 0 mm 2 mps 676 mmHg 75%
    08:00 +1°C° 0 mm 1 mps 676 mmHg 77%
    09:00 +3°C° 0 mm 1 mps 676 mmHg 80%
    10:00 +6°C° 0 mm 1 mps 677 mmHg 83%
    11:00 +6°C° 0 mm 1 mps 677 mmHg 83%
    12:00 +7°C° 0 mm 1 mps 676 mmHg 83%
    13:00 +6°C° 0 mm 0 mps 676 mmHg 84%
    14:00 +7°C° 0 mm 1 mps 676 mmHg 85%
    15:00 +7°C° 0 mm 1 mps 676 mmHg 87%
    16:00 +7°C° 0 mm 1 mps 675 mmHg 88%
    17:00 +5°C° 0 mm 1 mps 675 mmHg 85%
    18:00 +4°C° 0 mm 1 mps 675 mmHg 81%
    19:00 +3°C° 0 mm 1 mps 674 mmHg 77%
    20:00 +2°C° 0 mm 1 mps 674 mmHg 76%
    21:00 +2°C° 0 mm 1 mps 674 mmHg 76%
    22:00 +1°C° 0 mm 1 mps 674 mmHg 75%
    23:00 +1°C° 0 mm 1 mps 673 mmHg 76%

    27 February, Monday

    Time Temperature Precipitation Wind Pressure Humidity
    00:00 0°C° 0 mm 1 mps 673 mmHg 76%
    01:00 -1°C° 0 mm 1 mps 673 mmHg 77%
    02:00 -1°C° 0 mm 1 mps 673 mmHg 78%
    03:00 0°C° 0 mm 1 mps 672 mmHg 80%
    04:00 0°C° 0 mm 1 mps 672 mmHg 82%
    05:00 -1°C° 0 mm 2 mps 672 mmHg 82%
    06:00 -1°C° 0 mm 2 mps 672 mmHg 81%
    07:00 -1°C° 0 mm 2 mps 672 mmHg 81%
    08:00 +2°C° 0 mm 2 mps 672 mmHg 82%
    09:00 +4°C° 0 mm 2 mps 673 mmHg 83%
    10:00 +6°C° 0 mm 1 mps 673 mmHg 84%
    11:00 +7°C° 0 mm 1 mps 672 mmHg 84%
    12:00 +8°C° 0 mm 1 mps 671 mmHg 83%
    13:00 +8°C° 0 mm 1 mps 671 mmHg 82%
    14:00 +8°C° 0 mm 1 mps 670 mmHg 84%
    15:00 +8°C° 0 mm 1 mps 670 mmHg 86%
    16:00 +7°C° 0 mm 1 mps 669 mmHg 87%
    17:00 +5°C° 0 mm 2 mps 669 mmHg 89%
    18:00 +3°C° 0 mm 2 mps 669 mmHg 90%
    19:00 +2°C° 0 mm 2 mps 668 mmHg 91%
    20:00 +1°C° 0 mm 3 mps 668 mmHg 91%
    21:00 0°C° 0 mm 3 mps 668 mmHg 91%
    22:00 0°C° 0 mm 3 mps 668 mmHg 91%
    23:00 0°C° 0 mm 3 mps 667 mmHg 91%

    28 February, Tuesday

    Time Temperature Precipitation Wind Pressure Humidity
    00:00 -1°C° 0 mm 3 mps 667 mmHg 92%
    01:00 -1°C° 0 mm 3 mps 667 mmHg 93%
    02:00 -2°C° 0.1 mm 2 mps 667 mmHg 93%
    03:00 -2°C° 0.1 mm 2 mps 666 mmHg 93%
    04:00 -2°C° 0.1 mm 2 mps 666 mmHg 93%
    05:00 -2°C° 0.7 mm 2 mps 666 mmHg 93%
    06:00 -1°C° 0.7 mm 2 mps 667 mmHg 93%
    07:00 +1°C° 0.7 mm 2 mps 667 mmHg 94%
    08:00 +2°C° 0.5 mm 2 mps 667 mmHg 94%
    09:00 +2°C° 0.5 mm 2 mps 667 mmHg 94%
    10:00 +3°C° 0.5 mm 2 mps 666 mmHg 93%
    11:00 +4°C° 0.1 mm 2 mps 666 mmHg 92%
    12:00 +5°C° 0.1 mm 2 mps 665 mmHg 91%
    13:00 +5°C° 0.1 mm 2 mps 665 mmHg 90%
    14:00 +5°C° 0.4 mm 2 mps 664 mmHg 90%
    15:00 +5°C° 0.4 mm 2 mps 664 mmHg 91%
    16:00 +4°C° 0.4 mm 3 mps 663 mmHg 92%
    17:00 +3°C° 0.4 mm 3 mps 663 mmHg 93%
    18:00 +1°C° 0.4 mm 4 mps 663 mmHg 93%
    19:00 0°C° 0.4 mm 4 mps 663 mmHg 93%
    20:00 0°C° 1.6 mm 4 mps 664 mmHg 94%
    21:00 +1°C° 1.6 mm 3 mps 665 mmHg 95%
    22:00 0°C° 1.6 mm 3 mps 666 mmHg 96%
    23:00 -1°C° 0.7 mm 3 mps 667 mmHg 96%

    1 March, Wednesday

    Time Temperature Precipitation Wind Pressure Humidity
    00:00 -2°C° 0.7 mm 2 mps 667 mmHg 96%
    01:00 -3°C° 0.7 mm 2 mps 667 mmHg 96%
    02:00 -3°C° 0 mm 2 mps 667 mmHg 96%
    03:00 -4°C° 0 mm 2 mps 668 mmHg 95%
    04:00 -5°C° 0 mm 2 mps 668 mmHg 95%
    05:00 -6°C° 0 mm 2 mps 668 mmHg 94%
    06:00 -7°C° 0 mm 2 mps 668 mmHg 93%
    07:00 -8°C° 0 mm 2 mps 669 mmHg 91%
    08:00 -5°C° 0 mm 2 mps 670 mmHg 89%
    09:00 -2°C° 0 mm 2 mps 671 mmHg 87%
    10:00 +3°C° 0 mm 1 mps 672 mmHg 84%
    11:00 +4°C° 0.1 mm 1 mps 672 mmHg 86%
    12:00 +4°C° 0.1 mm 1 mps 672 mmHg 88%
    13:00 +5°C° 0.1 mm 1 mps 672 mmHg 90%
    14:00 +5°C° 0.2 mm 1 mps 673 mmHg 91%
    15:00 +5°C° 0.2 mm 1 mps 673 mmHg 93%
    16:00 +5°C° 0.2 mm 1 mps 673 mmHg 94%
    17:00 +5°C° 0.3 mm 1 mps 673 mmHg 94%
    18:00 +4°C° 0.3 mm 1 mps 674 mmHg 94%
    19:00 +2°C° 0.3 mm 2 mps 674 mmHg 93%
    20:00 +2°C° 0.1 mm 2 mps 674 mmHg 92%
    21:00 +1°C° 0.1 mm 2 mps 674 mmHg 91%
    22:00 +1°C° 0.1 mm 2 mps 674 mmHg 90%
    23:00 +1°C° 0 mm 2 mps 674 mmHg 90%
    Show more